TimeEDT,TemperatureF,Dew PointF,Humidity,Sea Level PressureIn,VisibilityMPH,Wind Direction,Wind SpeedMPH,Gust SpeedMPH,PrecipitationIn,Events,Conditions,WindDirDegrees,DateUTC
12:53 AM,46.9,41.0,80,30.03,10.0,ENE,5.8,-,N/A,,Clear,70,2013-10-19 04:53:00
1:53 AM,46.9,39.9,77,30.02,10.0,East,6.9,-,N/A,,Clear,80,2013-10-19 05:53:00
2:53 AM,46.0,39.9,79,30.02,10.0,Calm,Calm,-,N/A,,Clear,0,2013-10-19 06:53:00
3:53 AM,46.0,39.9,79,30.01,10.0,Calm,Calm,-,N/A,,Clear,0,2013-10-19 07:53:00
4:53 AM,46.9,39.0,74,29.99,10.0,Calm,Calm,-,N/A,,Clear,0,2013-10-19 08:53:00
5:53 AM,48.0,39.0,71,29.98,10.0,Calm,Calm,-,N/A,,Clear,0,2013-10-19 09:53:00
6:53 AM,41.0,39.0,93,29.98,8.0,Calm,Calm,-,N/A,,Clear,0,2013-10-19 10:53:00
7:53 AM,42.1,39.0,89,29.98,7.0,Calm,Calm,-,N/A,,Clear,0,2013-10-19 11:53:00
8:53 AM,44.1,41.0,89,29.99,7.0,Calm,Calm,-,N/A,,Clear,0,2013-10-19 12:53:00
9:53 AM,50.0,44.1,80,29.97,10.0,Calm,Calm,-,N/A,,Mostly Cloudy,0,2013-10-19 13:53:00
10:30 AM,51.8,44.6,76,29.93,10.0,West,4.6,-,N/A,,Overcast,270,2013-10-19 14:30:00
10:53 AM,51.1,44.1,77,29.96,10.0,SSW,4.6,-,N/A,,Overcast,200,2013-10-19 14:53:00
11:10 AM,51.8,44.6,76,29.91,10.0,WSW,3.5,-,N/A,,Overcast,240,2013-10-19 15:10:00
11:43 AM,53.6,46.4,77,29.90,10.0,South,3.5,-,N/A,,Overcast,190,2013-10-19 15:43:00
11:53 AM,55.0,46.9,74,29.94,10.0,South,10.4,17.3,N/A,,Overcast,180,2013-10-19 15:53:00
12:53 PM,57.0,50.0,77,29.91,10.0,SSE,9.2,-,N/A,,Overcast,160,2013-10-19 16:53:00
1:53 PM,57.9,51.1,78,29.84,10.0,SSE,8.1,-,N/A,,Overcast,160,2013-10-19 17:53:00
2:53 PM,59.0,52.0,78,29.83,10.0,South,8.1,-,N/A,,Overcast,190,2013-10-19 18:53:00
3:53 PM,60.1,53.1,78,29.83,10.0,SSW,8.1,-,N/A,,Overcast,200,2013-10-19 19:53:00
4:53 PM,61.0,54.0,78,29.80,10.0,SSE,4.6,-,N/A,,Overcast,160,2013-10-19 20:53:00
5:14 PM,60.8,53.6,77,29.77,10.0,South,4.6,-,0.00,,Overcast,190,2013-10-19 21:14:00
5:53 PM,59.0,55.0,87,29.81,1.0,NW,15.0,20.7,0.03,Rain,Heavy Rain,310,2013-10-19 21:53:00
5:56 PM,57.2,53.6,88,29.79,1.0,NW,11.5,20.7,0.01,Rain,Rain,310,2013-10-19 21:56:00
6:53 PM,57.0,50.0,77,29.84,10.0,West,8.1,-,0.04,,Overcast,260,2013-10-19 22:53:00
7:00 PM,57.2,48.2,72,29.80,10.0,West,4.6,-,N/A,,Overcast,270,2013-10-19 23:00:00
7:53 PM,55.9,46.0,69,29.85,10.0,West,8.1,-,N/A,,Partly Cloudy,260,2013-10-19 23:53:00
8:53 PM,57.0,45.0,64,29.86,10.0,WSW,4.6,-,N/A,,Overcast,240,2013-10-20 00:53:00
9:53 PM,55.0,44.1,67,29.87,10.0,West,10.4,-,N/A,,Clear,270,2013-10-20 01:53:00
10:53 PM,54.0,44.1,69,29.89,10.0,West,21.9,-,N/A,,Partly Cloudy,270,2013-10-20 02:53:00
11:53 PM,51.1,39.9,66,29.91,10.0,WNW,17.3,-,N/A,,Partly Cloudy,300,2013-10-20 03:53:00